Newport Airport, OR

1:06 PM PDT on April 24, 2017 (GMT -0700)
Newport Municipal

Weather History for KONP - December, 2011

Change the Weather History Date:

Thursday, December 22, 2011

  Actual Average Record
Temperature  
Mean Temperature 42 °F -  
Max Temperature 50 °F 48 °F 62 °F (1999)
Min Temperature 35 °F 39 °F 6 °F (1998)
Degree Days  
Heating Degree Days 22    
Moisture  
Dew Point 30 °F    
Average Humidity 66    
Maximum Humidity 87    
Minimum Humidity 47    
Precipitation  
Precipitation 0.00 in - - ()
Sea Level Pressure  
Sea Level Pressure 30.37 in    
Wind  
Wind Speed 14 mph (East)    
Max Wind Speed 23 mph    
Max Gust Speed 28 mph    
Visibility 10 miles    
Events      
Averages and records for this station are not official NWS values.
T = Trace of Precipitation, MM = Missing Value Source: NWS Daily Summary

Daily Weather History Graph

Daily Weather History Graph

Search for Another Location

Airport or City:

Trip Planner

Search our weather history database for the weather conditions in past years. The results will help you decide how hot, cold, wet, or windy it might be!

Date:

Astronomy

Dec. 22, 2011 Rise Set
Actual Time 7:50 AM PST 4:39 PM PST
Civil Twilight 7:16 AM PST 5:12 PM PST
Nautical Twilight 6:39 AM PST 5:49 PM PST
Astronomical Twilight 6:04 AM PST 6:25 PM PST
Moon 5:40 AM PST (12/22) 2:54 PM PST (12/22)
Length of Visible Light 9h 56m
Length of Day
8h 49m
Waning Crescent, 5% of the Moon is Illuminated
Dec 22
Waning Crescent
Dec 24
New
Dec 31
First Quarter
Jan 8
Full
Jan 16
Last Quarter

Hourly Weather History & Observations

Time (PST) Temp. Windchill Dew Point Humidity Pressure Visibility Wind Dir Wind Speed Gust Speed Precip Events Conditions
12:15 AM 35.6 °F 25.2 °F 32.0 °F 87% 30.42 in 10.0 mi East 18.4 mph 24.2 mph N/A   Clear
12:35 AM 37.4 °F 27.2 °F 32.0 °F 81% 30.42 in 10.0 mi East 19.6 mph - N/A   Clear
12:55 AM 37.4 °F 27.5 °F 32.0 °F 81% 30.41 in 10.0 mi East 18.4 mph 25.3 mph N/A   Clear
1:15 AM 37.4 °F 26.9 °F 32.0 °F 81% 30.41 in 10.0 mi East 20.7 mph 24.2 mph N/A   Clear
1:35 AM 37.4 °F 26.6 °F 32.0 °F 81% 30.40 in 10.0 mi East 21.9 mph 27.6 mph N/A   Clear
1:55 AM 37.4 °F 26.6 °F 32.0 °F 81% 30.40 in 10.0 mi East 21.9 mph 27.6 mph N/A   Clear
2:15 AM 37.4 °F 26.4 °F 32.0 °F 81% 30.40 in 10.0 mi East 23.0 mph 26.5 mph N/A   Clear
2:35 AM 37.4 °F 26.4 °F 32.0 °F 81% 30.39 in 10.0 mi East 23.0 mph 27.6 mph N/A   Clear
2:55 AM 37.4 °F 26.9 °F 30.2 °F 75% 30.39 in 10.0 mi East 20.7 mph 26.5 mph N/A   Clear
3:35 AM 37.4 °F 26.9 °F 30.2 °F 75% 30.39 in 10.0 mi East 20.7 mph - N/A   Clear
3:55 AM 37.4 °F 27.5 °F 30.2 °F 75% 30.39 in 10.0 mi East 18.4 mph 24.2 mph N/A   Clear
4:15 AM 37.4 °F 27.2 °F 30.2 °F 75% 30.39 in 10.0 mi East 19.6 mph 26.5 mph N/A   Clear
4:35 AM 35.6 °F 25.2 °F 30.2 °F 81% 30.38 in 10.0 mi East 18.4 mph 23.0 mph N/A   Clear
4:55 AM 35.6 °F 25.9 °F 30.2 °F 81% 30.38 in 10.0 mi East 16.1 mph 23.0 mph N/A   Clear
5:15 AM 35.6 °F 27.1 °F 28.4 °F 75% 30.37 in 10.0 mi East 12.7 mph 17.3 mph N/A   Clear
5:35 AM 35.6 °F 28.6 °F 28.4 °F 75% 30.37 in 10.0 mi East 9.2 mph - N/A   Clear
5:55 AM 35.6 °F 28.6 °F 28.4 °F 75% 30.37 in 10.0 mi East 9.2 mph - N/A   Clear
6:15 AM 35.6 °F 28.6 °F 28.4 °F 75% 30.37 in 10.0 mi East 9.2 mph - N/A   Clear
6:35 AM 35.6 °F 26.6 °F 28.4 °F 75% 30.37 in 10.0 mi ENE 13.8 mph 19.6 mph N/A   Clear
6:55 AM 35.6 °F 26.6 °F 28.4 °F 75% 30.36 in 10.0 mi East 13.8 mph 18.4 mph N/A   Clear
7:35 AM 35.6 °F 26.2 °F 26.6 °F 70% 30.36 in 10.0 mi ENE 15.0 mph - N/A   Clear
8:15 AM 37.4 °F 31.4 °F 26.6 °F 65% 30.35 in 10.0 mi ENE 8.1 mph 18.4 mph N/A   Clear
8:35 AM 37.4 °F 32.1 °F 26.6 °F 65% 30.35 in 10.0 mi ENE 6.9 mph - N/A   Clear
8:55 AM 37.4 °F 30.3 °F 26.6 °F 65% 30.36 in 10.0 mi ENE 10.4 mph - N/A   Clear
9:15 AM 39.2 °F 32.0 °F 26.6 °F 61% 30.36 in 10.0 mi ENE 11.5 mph - N/A   Clear
9:35 AM 41.0 °F 34.3 °F 26.6 °F 57% 30.36 in 10.0 mi ENE 11.5 mph - N/A   Clear
9:55 AM 41.0 °F 33.1 °F 26.6 °F 57% 30.35 in 10.0 mi East 15.0 mph 20.7 mph N/A   Clear
10:15 AM 42.8 °F 35.4 °F 26.6 °F 53% 30.34 in 10.0 mi East 15.0 mph - N/A   Clear
10:35 AM 44.6 °F 37.8 °F 26.6 °F 49% 30.34 in 10.0 mi East 15.0 mph - N/A   Clear
10:55 AM 44.6 °F 38.4 °F 26.6 °F 49% 30.34 in 10.0 mi ENE 12.7 mph 16.1 mph N/A   Clear
11:15 AM 46.4 °F 41.9 °F 28.4 °F 50% 30.34 in 10.0 mi East 9.2 mph - N/A   Clear
11:35 AM 46.4 °F 43.5 °F 28.4 °F 50% 30.35 in 10.0 mi East 5.8 mph - N/A   Clear
11:55 AM 48.2 °F - 30.2 °F 50% 30.35 in 10.0 mi ENE 5.8 mph - N/A   Clear
12:15 PM 48.2 °F - 30.2 °F 50% 30.34 in 10.0 mi ENE 6.9 mph - N/A   Clear
12:35 PM 50.0 °F - 30.2 °F 47% 30.34 in 10.0 mi East 4.6 mph - N/A   Clear
12:55 PM 50.0 °F - 30.2 °F 47% 30.33 in 10.0 mi East 4.6 mph - N/A   Clear
1:35 PM 50.0 °F - 32.0 °F 50% 30.33 in 10.0 mi East 5.8 mph - N/A   Clear
2:15 PM 50.0 °F - 32.0 °F 50% 30.32 in 10.0 mi East 6.9 mph - N/A   Clear
2:35 PM 48.2 °F - 32.0 °F 54% 30.33 in 10.0 mi East 5.8 mph - N/A   Clear
2:55 PM 48.2 °F - 32.0 °F 54% 30.32 in 10.0 mi East 8.1 mph - N/A   Clear
3:15 PM 46.4 °F 42.4 °F 32.0 °F 57% 30.33 in 10.0 mi East 8.1 mph - N/A   Clear
3:35 PM 46.4 °F 42.9 °F 32.0 °F 57% 30.34 in 10.0 mi East 6.9 mph - N/A   Clear
3:55 PM 44.6 °F 40.2 °F 32.0 °F 61% 30.34 in 10.0 mi East 8.1 mph - N/A   Clear
4:15 PM 44.6 °F 40.7 °F 32.0 °F 61% 30.34 in 10.0 mi East 6.9 mph - N/A   Clear
4:35 PM 42.8 °F 39.3 °F 32.0 °F 66% 30.35 in 10.0 mi East 5.8 mph - N/A   Clear
4:55 PM 41.0 °F 36.4 °F 32.0 °F 70% 30.36 in 10.0 mi ESE 6.9 mph - N/A   Clear
5:15 PM 39.2 °F 35.0 °F 32.0 °F 75% 30.36 in 10.0 mi ESE 5.8 mph - N/A   Clear
5:35 PM 41.0 °F 36.4 °F 32.0 °F 70% 30.37 in 10.0 mi East 6.9 mph - N/A   Clear
5:55 PM 39.2 °F 35.0 °F 32.0 °F 75% 30.37 in 10.0 mi ESE 5.8 mph - N/A   Clear
6:15 PM 39.2 °F 35.9 °F 32.0 °F 75% 30.38 in 10.0 mi East 4.6 mph - N/A   Clear
6:35 PM 39.2 °F 35.0 °F 32.0 °F 75% 30.39 in 10.0 mi ESE 5.8 mph - N/A   Clear
6:55 PM 37.4 °F - 32.0 °F 81% 30.40 in 10.0 mi Calm Calm - N/A   Clear
7:15 PM 41.0 °F 37.1 °F 30.2 °F 65% 30.40 in 10.0 mi South 5.8 mph - N/A   Clear
7:35 PM 42.8 °F 38.6 °F 26.6 °F 53% 30.39 in 10.0 mi SSE 6.9 mph - N/A   Clear
7:55 PM 44.6 °F 42.2 °F 26.6 °F 49% 30.40 in 10.0 mi South 4.6 mph - N/A   Clear
8:15 PM 37.4 °F - 30.2 °F 75% 30.42 in 10.0 mi Calm Calm - N/A   Clear
8:35 PM 41.0 °F 37.1 °F 28.4 °F 61% 30.42 in 10.0 mi SSE 5.8 mph - N/A   Clear
8:55 PM 42.8 °F 39.3 °F 28.4 °F 57% 30.43 in 10.0 mi SSE 5.8 mph - N/A   Clear
9:15 PM 42.8 °F 39.3 °F 28.4 °F 57% 30.43 in 10.0 mi SSE 5.8 mph - N/A   Clear
9:35 PM 41.0 °F 39.0 °F 28.4 °F 61% 30.43 in 10.0 mi ESE 3.5 mph - N/A   Clear
9:55 PM 37.4 °F - 28.4 °F 70% 30.43 in 10.0 mi Calm Calm - N/A   Clear
10:15 PM 35.6 °F 29.9 °F 32.0 °F 87% 30.43 in 10.0 mi East 6.9 mph - N/A   Clear
10:35 PM 35.6 °F 29.9 °F 32.0 °F 87% 30.43 in 10.0 mi East 6.9 mph - N/A   Clear
10:55 PM 37.4 °F 31.4 °F 32.0 °F 81% 30.42 in 10.0 mi East 8.1 mph - N/A   Clear
11:15 PM 37.4 °F 32.8 °F 32.0 °F 81% 30.43 in 10.0 mi East 5.8 mph - N/A   Clear
11:35 PM 35.6 °F 29.9 °F 32.0 °F 87% 30.43 in 10.0 mi East 6.9 mph - N/A   Clear
11:55 PM 35.6 °F 32.8 °F 30.2 °F 81% 30.46 in 10.0 mi NE 3.5 mph - N/A   Clear